Location: Spondin
(51.8528°N, 111.6118°W)
Time: 11:52:40
(UTC+00:00)

Vanguard 1 - Visible Passes

Search period start: 28 May 2022 00:00
Search period end: 07 June 2022 00:00
Orbit: 649 x 3833 km, 34.3° (Epoch: 27 May)

Date Brightness Start Highest point End Pass type
(mag) Time Alt. Az. Time Alt. Az. Time Alt. Az.
28 May 13.1 05:36:25 10° SE 05:37:58 10° ESE 05:40:01 10° ESE visible
28 May 12.5 07:49:02 20° S 07:56:47 32° SSE 08:13:28 10° E visible
28 May 12.9 10:03:39 10° WSW 10:18:40 45° S 10:39:35 10° ESE visible
29 May 12.8 05:55:09 14° SE 05:57:35 15° SE 06:05:10 10° ESE visible
29 May 12.6 08:07:46 18° SSW 08:16:58 36° SSE 08:34:39 10° E visible
29 May 13.0 10:24:04 10° WSW 10:39:15 45° S 11:00:12 10° ESE visible
30 May 12.5 06:13:50 17° SSE 06:17:19 19° SE 06:27:41 10° E visible
30 May 12.6 08:26:26 14° SW 08:37:16 39° SSE 08:55:42 10° ESE visible
31 May 12.4 06:32:25 19° S 06:37:12 24° SE 06:49:29 10° E visible
31 May 12.6 08:45:24 10° SW 08:57:40 41° SSE 09:16:36 10° ESE visible
01 Jun 12.4 06:50:53 18° S 06:57:12 28° SSE 07:10:55 10° E visible
01 Jun 12.6 09:05:40 10° WSW 09:18:10 42° S 09:37:24 10° ESE visible
02 Jun 12.5 04:56:32 10° SE 04:58:40 11° SE 05:01:33 10° ESE visible
02 Jun 12.4 07:09:05 14° SSW 07:17:20 32° SSE 07:32:08 10° E visible
02 Jun 12.7 09:26:03 10° WSW 09:38:42 42° S 09:58:02 10° ESE visible
03 Jun 12.3 05:14:15 12° SSE 05:18:25 15° SE 05:25:05 10° ESE visible
03 Jun 12.3 07:27:53 10° SW 07:37:35 35° SSE 07:53:12 10° ESE visible
03 Jun 12.7 09:46:32 10° WSW 09:59:17 40° S 10:18:30 10° SE visible
04 Jun 12.3 05:32:01 10° S 05:38:17 19° SE 05:47:06 10° ESE visible
04 Jun 12.3 07:48:00 10° SW 07:57:57 37° SSE 08:14:07 10° ESE visible
04 Jun 12.8 10:07:07 10° WSW 10:19:53 38° S 10:38:46 10° SE visible
05 Jun 12.2 05:51:21 10° SSW 05:58:16 23° SE 06:08:36 10° ESE visible
05 Jun 12.3 08:08:15 10° SW 08:18:23 38° S 08:34:53 10° ESE visible
06 Jun 12.1 06:11:02 10° SSW 06:18:23 27° SSE 06:29:50 10° ESE visible
06 Jun 12.3 08:28:36 10° WSW 08:38:52 38° S 08:55:31 10° ESE visible
